Date String (YYYY-MM-DD hh:mm:ss) UTC,Instrument flags,absolute air pressure of the measurement (hPa),sample flow rate (lpm),inlet stack bypass flow (lpm),air temperature of the measurement (°C),ambient temperature measured by the external sensor (°C),aerosol sample conditioner tube jacket temperature (°C),OPC LED temperature (°C),internal box temperature (°C),relative humidity of the measurement (%),span deviation,mass concentration of particles derived from Lorenz-Mie calculation of OPC scattering (μg/m³),mass concentration of particles derived from Lorenz-Mie calculation of OPC scattering (μg/m³),mass concentration of particles derived from Lorenz-Mie calculation of OPC scattering (μg/m³)
DateTimeUTC,F1_M11,P_M11,Q1_M11,Q2_M11,T1_M11,T2_M11,T3_M11,T4_M11,T5_M11,U1_M11,ZSPAN_M11,X0_M11,X2_M11,X1_M11
2023-11-10 12:00:00,SystemResetWarning,0832.2,5.00,000.00,020.6,019.5,000.0,029.1,021.9,12.6,0000.0,0009.88,0004.69,0004.02
2023-11-10 12:01:00,SystemResetWarning,0832.4,5.00,000.00,020.6,019.5,000.0,029.1,021.8,12.6,0000.0,0009.82,0004.66,0004.02
2023-11-10 12:02:00,SystemResetWarning,0832.1,5.00,000.00,020.6,019.5,000.0,029.1,021.8,12.6,0000.0,0009.80,0004.69,0004.02
2023-11-10 12:03:00,SystemResetWarning,0832.3,5.00,000.00,020.6,019.5,000.0,029.1,021.8,12.6,0000.0,0009.93,0004.67,0004.02
2023-11-10 12:04:00,SystemResetWarning,0832.3,5.00,000.00,020.6,019.4,000.0,029.1,021.8,12.7,0000.0,0009.30,0004.64,0004.01
2023-11-10 12:05:00,SystemResetWarning,0832.3,5.01,000.00,020.5,019.4,000.0,029.0,021.8,12.7,0000.0,0009.38,0004.64,0003.99
2023-11-10 12:06:00,SystemResetWarning,0832.3,5.01,000.00,020.5,019.4,000.0,029.0,021.8,12.8,0000.0,0009.33,0004.62,0003.99
2023-11-10 12:07:00,SystemResetWarning,0832.3,4.99,000.00,020.5,019.4,000.0,029.0,021.7,12.8,0000.0,0009.32,0004.60,0003.98
2023-11-10 12:08:00,SystemResetWarning,0832.1,5.00,000.00,020.5,019.4,000.0,029.0,021.7,12.8,0000.0,0009.28,0004.62,0003.99
2023-11-10 12:09:00,SystemResetWarning,0831.7,4.99,000.00,020.5,019.3,000.0,029.0,021.7,12.8,0000.0,0009.27,0004.63,0003.99
2023-11-10 12:10:00,SystemResetWarning,0832.2,5.00,000.00,020.5,019.3,000.0,029.0,021.7,12.8,0000.0,0009.73,0004.66,0003.99
2023-11-10 12:11:00,SystemResetWarning,0832.1,5.01,000.00,020.4,019.4,000.0,029.0,021.7,12.8,0000.0,0009.85,0004.69,0004.00
2023-11-10 12:12:00,SystemResetWarning,0832.0,5.01,000.00,020.4,019.4,000.0,028.9,021.7,12.7,0000.0,0010.01,0004.72,0004.01
2023-11-10 12:13:00,SystemResetWarning,0832.2,5.00,000.00,020.4,019.3,000.0,028.9,021.7,12.6,0000.0,0010.38,0004.74,0004.02
2023-11-10 12:14:00,SystemResetWarning,0831.9,4.99,000.00,020.4,019.3,000.0,028.9,021.7,12.3,0000.0,0010.51,0004.78,0004.03
2023-11-10 12:15:00,SystemResetWarning,0831.7,5.00,000.00,020.4,019.3,000.0,028.9,021.7,12.5,0000.0,0010.28,0004.81,0004.04
2023-11-10 12:16:00,SystemResetWarning,0831.6,4.99,000.00,020.4,019.3,000.0,028.9,021.7,12.6,0000.0,0010.10,0004.81,0004.04
2023-11-10 12:17:00,SystemResetWarning,0831.7,4.99,000.00,020.4,019.3,000.0,028.9,021.7,12.6,0000.0,0010.09,0004.78,0004.01
2023-11-10 12:18:00,SystemResetWarning,0831.7,5.00,000.00,020.4,019.3,000.0,028.9,021.7,12.6,0000.0,0010.60,0004.71,0003.96
2023-11-10 12:19:00,SystemResetWarning,0832.2,5.00,000.00,020.4,019.3,000.0,028.9,021.7,12.6,0000.0,0010.79,0004.71,0003.95
2023-11-10 12:20:00,SystemResetWarning,0832.1,5.00,000.00,020.4,019.3,000.0,028.9,021.7,12.6,0000.0,0011.01,0004.71,0003.93
2023-11-10 12:21:00,SystemResetWarning,0832.1,5.00,000.00,020.4,019.3,000.0,028.9,021.7,12.6,0000.0,0011.09,0004.66,0003.92
2023-11-10 12:22:00,SystemResetWarning,0832.3,5.00,000.00,020.4,019.3,000.0,028.8,021.7,12.5,0000.0,0010.87,0004.62,0003.92
2023-11-10 12:23:00,SystemResetWarning,0832.2,5.01,000.00,020.4,019.3,000.0,028.8,021.7,12.5,0000.0,0010.53,0004.60,0003.90
2023-11-10 12:24:00,SystemResetWarning,0832.2,5.00,000.00,020.4,019.3,000.0,028.8,021.6,12.5,0000.0,0009.98,0004.53,0003.88
2023-11-10 12:25:00,SystemResetWarning,0831.9,5.00,000.00,020.3,019.3,000.0,028.8,021.6,12.6,0000.0,0010.07,0004.48,0003.84
2023-11-10 12:26:00,SystemResetWarning,0831.7,5.00,000.00,020.3,019.3,000.0,028.8,021.6,12.5,0000.0,0010.38,0004.44,0003.81
2023-11-10 12:27:00,SystemResetWarning,0831.7,5.00,000.00,020.3,019.3,000.0,028.8,021.6,12.6,0000.0,0010.20,0004.38,0003.79
2023-11-10 12:28:00,SystemResetWarning,0831.6,5.00,000.00,020.3,019.3,000.0,028.8,021.6,12.6,0000.0,0010.10,0004.38,0003.80
2023-11-10 12:29:00,SystemResetWarning,0831.6,4.99,000.00,020.3,019.3,000.0,028.8,021.7,12.7,0000.0,0009.52,0004.43,0003.83
2023-11-10 12:30:00,SystemResetWarning,0831.7,5.00,000.00,020.3,019.3,000.0,028.8,021.7,12.7,0000.0,0009.45,0004.42,0003.82
2023-11-10 12:31:00,SystemResetWarning,0831.7,5.00,000.00,020.3,019.3,000.0,028.8,021.7,12.6,0000.0,0009.21,0004.39,0003.82
2023-11-10 12:32:00,SystemResetWarning,0831.7,5.00,000.00,020.3,019.3,000.0,028.8,021.6,12.6,0000.0,0008.68,0004.37,0003.83
2023-11-10 12:33:00,SystemResetWarning,0831.9,5.00,000.00,020.3,019.3,000.0,028.8,021.6,12.7,0000.0,0008.53,0004.38,0003.83
2023-11-10 12:34:00,SystemResetWarning,0831.7,5.00,000.00,020.3,019.3,000.0,028.8,021.6,12.7,0000.0,0008.71,0004.38,0003.83
2023-11-10 12:35:00,SystemResetWarning,0831.7,5.00,000.00,020.3,019.3,000.0,028.8,021.5,12.7,0000.0,0009.39,0004.39,0003.82
2023-11-10 12:36:00,SystemResetWarning,0831.6,5.01,000.00,020.3,019.2,000.0,028.7,021.6,12.6,0000.0,0009.09,0004.41,0003.83
2023-11-10 12:37:00,SystemResetWarning,0831.6,5.00,000.00,020.3,019.2,000.0,028.7,021.6,12.4,0000.0,0008.42,0004.42,0003.85
2023-11-10 12:38:00,SystemResetWarning,0831.6,5.00,000.00,020.3,019.2,000.0,028.7,021.6,12.4,0000.0,0008.72,0004.49,0003.87
2023-11-10 12:39:00,SystemResetWarning,0831.6,5.01,000.00,020.3,019.2,000.0,028.7,021.6,12.3,0000.0,0009.02,0004.52,0003.88
2023-11-10 12:40:00,SystemResetWarning,0831.6,5.00,000.00,020.3,019.2,000.0,028.7,021.6,12.1,0000.0,0009.00,0004.50,0003.88
2023-11-10 12:41:00,SystemResetWarning,0831.6,5.00,000.00,020.2,019.2,000.0,028.7,021.6,12.0,0000.0,0008.88,0004.48,0003.87
2023-11-10 12:42:00,SystemResetWarning,0831.6,5.00,000.00,020.2,019.2,000.0,028.7,021.6,12.0,0000.0,0008.93,0004.48,0003.85
2023-11-10 12:43:00,SystemResetWarning,0831.6,5.00,000.00,020.2,019.2,000.0,028.7,021.6,12.0,0000.0,0008.89,0004.46,0003.80
2023-11-10 12:44:00,SystemResetWarning,0831.6,4.99,000.00,020.2,019.2,000.0,028.7,021.6,12.0,0000.0,0008.88,0004.41,0003.74
2023-11-10 12:45:00,SystemResetWarning,0831.6,4.99,000.00,020.2,019.2,000.0,028.7,021.6,11.9,0000.0,0008.76,0004.33,0003.69
2023-11-10 12:46:00,SystemResetWarning,0831.6,4.99,000.00,020.2,019.3,000.0,028.7,021.5,12.0,0000.0,0008.01,0004.26,0003.64
2023-11-10 12:47:00,SystemResetWarning,0831.6,5.00,000.00,020.2,019.3,000.0,028.7,021.6,12.0,0000.0,0007.78,0004.16,0003.58
2023-11-10 12:48:00,SystemResetWarning,0831.6,5.00,000.00,020.2,019.3,000.0,028.7,021.6,11.9,0000.0,0007.67,0004.09,0003.53
2023-11-10 12:49:00,SystemResetWarning,0831.7,5.00,000.00,020.2,019.3,000.0,028.7,021.5,11.9,0000.0,0007.32,0003.99,0003.47
2023-11-10 12:50:00,SystemResetWarning,0831.7,5.00,000.00,020.2,019.2,000.0,028.7,021.5,11.9,0000.0,0006.85,0003.90,0003.41
2023-11-10 12:51:00,SystemResetWarning,0831.7,5.00,000.00,020.2,019.2,000.0,028.7,021.5,11.9,0000.0,0006.96,0003.88,0003.37
2023-11-10 12:52:00,SystemResetWarning,0831.7,5.00,000.00,020.2,019.3,000.0,028.7,021.5,11.9,0000.0,0006.80,0003.84,0003.34
2023-11-10 12:53:00,SystemResetWarning,0831.7,5.00,000.00,020.2,019.2,000.0,028.7,021.5,11.9,0000.0,0006.39,0003.79,0003.31
2023-11-10 12:54:00,SystemResetWarning,0831.7,5.00,000.00,020.2,019.2,000.0,028.6,021.5,11.9,0000.0,0006.29,0003.75,0003.29
2023-11-10 12:55:00,SystemResetWarning,0831.7,5.00,000.00,020.2,019.2,000.0,028.6,021.5,11.8,0000.0,0006.07,0003.72,0003.29
2023-11-10 12:56:00,SystemResetWarning,0831.7,5.00,000.00,020.2,019.2,000.0,028.6,021.5,11.7,0000.0,0006.04,0003.72,0003.29
2023-11-10 12:57:00,SystemResetWarning,0831.7,5.00,000.00,020.2,019.1,000.0,028.6,021.4,11.9,0000.0,0005.76,0003.70,0003.29
2023-11-10 12:58:00,SystemResetWarning,0831.7,5.00,000.00,020.2,019.1,000.0,028.6,021.7,11.9,0000.0,0005.83,0003.71,0003.29
2023-11-10 12:59:00,SystemResetWarning,0831.7,5.01,000.00,020.3,019.5,000.0,028.6,022.1,11.8,0000.0,0005.93,0003.72,0003.28
